| time (UTC) | temp F | wind direction | speed MPH | gust MPH | rain 1hr in | rain 24hr in | rain mn in | humidity % | barometer mb |
| 20260906103026 | 90 | 40 | 14.0 | 27.0 | 0.00 | 0.00 | 0.00 | 34 | 1019.2 |
| 20260906102526 | 90 | 56 | 13.0 | 20.0 | 0.00 | 0.00 | 0.00 | 35 | 1019.2 |
| 20260906102026 | 90 | 65 | 13.0 | 20.0 | 0.00 | 0.00 | 0.00 | 34 | 1019.1 |
| 20260906101526 | 90 | 57 | 13.0 | 22.0 | 0.00 | 0.00 | 0.00 | 35 | 1019.2 |
| 20260906101026 | 89 | 80 | 15.0 | 21.0 | 0.00 | 0.00 | 0.00 | 34 | 1019.2 |
| 20260906100526 | 89 | 63 | 15.0 | 24.0 | 0.00 | 0.00 | 0.00 | 35 | 1019.5 |
| 20260906100026 | 89 | 48 | 13.0 | 24.0 | 0.00 | 0.00 | 0.00 | 35 | 1019.6 |
| 20260906095526 | 89 | 45 | 16.0 | 22.0 | 0.00 | 0.00 | 0.00 | 34 | 1019.6 |
| 20260906095026 | 89 | 84 | 17.0 | 23.0 | 0.00 | 0.00 | 0.00 | 35 | 1019.6 |
| 20260906094526 | 89 | 62 | 17.0 | 25.0 | 0.00 | 0.00 | 0.00 | 34 | 1019.6 |
| 20260906094026 | 89 | 32 | 16.0 | 23.0 | 0.00 | 0.00 | 0.00 | 36 | 1019.8 |
| 20260906093526 | 89 | 70 | 13.0 | 26.0 | 0.00 | 0.00 | 0.00 | 35 | 1019.7 |
| 20260906093026 | 89 | 35 | 13.0 | 17.0 | 0.00 | 0.00 | 0.00 | 37 | 1019.7 |
| 20260906092526 | 88 | 37 | 14.0 | 20.0 | 0.00 | 0.00 | 0.00 | 35 | 1019.8 |
| 20260906092026 | 88 | 46 | 13.0 | 20.0 | 0.00 | 0.00 | 0.00 | 36 | 1019.8 |
| 20260906091526 | 88 | 20 | 14.0 | 23.0 | 0.00 | 0.00 | 0.00 | 36 | 1019.8 |
| 20260906091026 | 88 | 77 | 13.0 | 23.0 | 0.00 | 0.00 | 0.00 | 36 | 1019.9 |
| 20260906090526 | 88 | 55 | 13.0 | 19.0 | 0.00 | 0.00 | 0.00 | 37 | 1019.8 |
| 20260906090026 | 88 | 86 | 12.0 | 20.0 | 0.00 | 0.00 | 0.00 | 37 | 1019.8 |
| 20260906085526 | 88 | 71 | 12.0 | 20.0 | 0.00 | 0.00 | 0.00 | 38 | 1019.8 |
| 20260906085026 | 88 | 81 | 11.0 | 19.0 | 0.00 | 0.00 | 0.00 | 37 | 1019.8 |
| 20260906084526 | 87 | 32 | 11.0 | 17.0 | 0.00 | 0.00 | 0.00 | 38 | 1019.8 |
| 20260906084026 | 87 | 55 | 12.0 | 18.0 | 0.00 | 0.00 | 0.00 | 37 | 1019.8 |
| 20260906083526 | 87 | 42 | 14.0 | 18.0 | 0.00 | 0.00 | 0.00 | 37 | 1019.9 |
| 20260906083026 | 87 | 84 | 14.0 | 22.0 | 0.00 | 0.00 | 0.00 | 37 | 1020.0 |
| 20260906082526 | 87 | 62 | 12.0 | 21.0 | 0.00 | 0.00 | 0.00 | 37 | 1020.0 |
| 20260906082026 | 86 | 78 | 13.0 | 19.0 | 0.00 | 0.00 | 0.00 | 38 | 1020.0 |
| 20260906081526 | 86 | 46 | 13.0 | 19.0 | 0.00 | 0.00 | 0.00 | 38 | 1020.0 |
| 20260906081026 | 86 | 65 | 15.0 | 23.0 | 0.00 | 0.00 | 0.00 | 38 | 1020.1 |
| 20260906080526 | 86 | 56 | 13.0 | 25.0 | 0.00 | 0.00 | 0.00 | 38 | 1020.0 |
| 20260906080026 | 86 | 69 | 12.0 | 22.0 | 0.00 | 0.00 | 0.00 | 38 | 1020.1 |
| 20260906075526 | 86 | 60 | 12.0 | 20.0 | 0.00 | 0.00 | 0.00 | 39 | 1020.0 |
| 20260906075026 | 86 | 52 | 11.0 | 18.0 | 0.00 | 0.00 | 0.00 | 39 | 1019.9 |
| 20260906074526 | 86 | 63 | 11.0 | 20.0 | 0.00 | 0.00 | 0.00 | 40 | 1020.0 |
| 20260906074026 | 85 | 61 | 10.0 | 18.0 | 0.00 | 0.00 | 0.00 | 40 | 1019.9 |
| 20260906073526 | 85 | 46 | 9.0 | 15.0 | 0.00 | 0.00 | 0.00 | 41 | 1020.0 |
| 20260906073026 | 85 | 40 | 10.0 | 17.0 | 0.00 | 0.00 | 0.00 | 40 | 1019.8 |
| 20260906072526 | 85 | 40 | 9.0 | 14.0 | 0.00 | 0.00 | 0.00 | 41 | 1019.8 |
| 20260906072026 | 85 | 67 | 9.0 | 14.0 | 0.00 | 0.00 | 0.00 | 41 | 1019.8 |
| 20260906071526 | 84 | 58 | 11.0 | 19.0 | 0.00 | 0.00 | 0.00 | 42 | 1019.7 |
| 20260906071026 | 84 | 76 | 9.0 | 16.0 | 0.00 | 0.00 | 0.00 | 44 | 1019.8 |
| 20260906070526 | 84 | 64 | 6.0 | 12.0 | 0.00 | 0.00 | 0.00 | 44 | 1019.7 |
| 20260906070026 | 84 | 59 | 4.0 | 12.0 | 0.00 | 0.00 | 0.00 | 45 | 1019.7 |
| 20260906065526 | 83 | 30 | 2.0 | 5.0 | 0.00 | 0.00 | 0.00 | 49 | 1019.7 |
| 20260906065026 | 82 | 91 | 1.0 | 5.0 | 0.00 | 0.00 | 0.00 | 54 | 1019.8 |
| 20260906064526 | 82 | 344 | 1.0 | 3.0 | 0.00 | 0.00 | 0.00 | 61 | 1019.6 |
| 20260906064026 | 81 | 323 | 3.0 | 4.0 | 0.00 | 0.00 | 0.00 | 62 | 1019.6 |
| 20260906063526 | 80 | 355 | 3.0 | 6.0 | 0.00 | 0.00 | 0.00 | 61 | 1019.6 |
| 20260906063026 | 80 | 355 | 1.0 | 8.0 | 0.00 | 0.00 | 0.00 | 65 | 1019.6 |
| 20260906062526 | 79 | 355 | 1.0 | 4.0 | 0.00 | 0.00 | 0.00 | 68 | 1019.6 |
| 20260906062026 | 78 | 19 | 2.0 | 5.0 | 0.00 | 0.00 | 0.00 | 70 | 1019.5 |
| 20260906061526 | 77 | 348 | 2.0 | 4.0 | 0.00 | 0.00 | 0.00 | 71 | 1019.5 |
| 20260906061026 | 77 | 335 | 2.0 | 3.0 | 0.00 | 0.00 | 0.00 | 71 | 1019.6 |
| 20260906060526 | 76 | 330 | 2.0 | 4.0 | 0.00 | 0.00 | 0.00 | 72 | 1019.6 |
| 20260906060026 | 75 | 332 | 2.0 | 4.0 | 0.00 | 0.00 | 0.00 | 71 | 1019.6 |
| 20260906055526 | 75 | 312 | 3.0 | 4.0 | 0.00 | 0.00 | 0.00 | 71 | 1019.5 |
| 20260906055026 | 74 | 315 | 3.0 | 4.0 | 0.00 | 0.00 | 0.00 | 71 | 1019.4 |
| 20260906054526 | 74 | 327 | 2.0 | 4.0 | 0.00 | 0.00 | 0.00 | 70 | 1019.4 |
| 20260906054026 | 74 | 0 | 2.0 | 4.0 | 0.00 | 0.00 | 0.00 | 69 | 1019.3 |
| 20260906053526 | 73 | 355 | 2.0 | 3.0 | 0.00 | 0.00 | 0.00 | 68 | 1019.2 |
| 20260906053026 | 73 | 0 | 2.0 | 4.0 | 0.00 | 0.00 | 0.00 | 68 | 1019.2 |
| 20260906052526 | 73 | 5 | 2.0 | 4.0 | 0.00 | 0.00 | 0.00 | 69 | 1019.1 |
| 20260906052026 | 72 | 326 | 2.0 | 3.0 | 0.00 | 0.00 | 0.00 | 68 | 1019.0 |
| 20260906051526 | 71 | 307 | 2.0 | 2.0 | 0.00 | 0.00 | 0.00 | 69 | 1019.0 |
| 20260906051026 | 71 | 306 | 2.0 | 3.0 | 0.00 | 0.00 | 0.00 | 69 | 1019.1 |
| 20260906050526 | 70 | 306 | 2.0 | 3.0 | 0.00 | 0.00 | 0.00 | 70 | 1019.0 |
| 20260906045526 | 69 | 306 | 2.0 | 3.0 | 0.00 | 0.00 | 0.00 | 71 | 1019.0 |
| 20260906045026 | 69 | 306 | 1.0 | 3.0 | 0.00 | 0.00 | 0.00 | 71 | 1018.9 |
| 20260906044526 | 69 | 306 | 2.0 | 3.0 | 0.00 | 0.00 | 0.00 | 70 | 1018.9 |
| 20260906044026 | 69 | 305 | 3.0 | 4.0 | 0.00 | 0.00 | 0.00 | 70 | 1018.8 |
| 20260906043526 | 70 | 299 | 3.0 | 4.0 | 0.00 | 0.00 | 0.00 | 70 | 1018.8 |
| 20260906043026 | 70 | 282 | 2.0 | 4.0 | 0.00 | 0.00 | 0.00 | 70 | 1018.8 |
| 20260906042526 | 69 | 279 | 2.0 | 4.0 | 0.00 | 0.00 | 0.00 | 71 | 1018.7 |
| 20260906042026 | 68 | 276 | 3.0 | 4.0 | 0.00 | 0.00 | 0.00 | 74 | 1018.6 |
| 20260906041526 | 68 | 277 | 3.0 | 4.0 | 0.00 | 0.00 | 0.00 | 74 | 1018.6 |
| 20260906041026 | 67 | 272 | 2.0 | 4.0 | 0.00 | 0.00 | 0.00 | 76 | 1018.7 |
| 20260906040526 | 67 | 289 | 2.0 | 3.0 | 0.00 | 0.00 | 0.00 | 77 | 1018.5 |
| 20260906040026 | 67 | 319 | 3.0 | 3.0 | 0.00 | 0.00 | 0.00 | 77 | 1018.5 |
| 20260906035526 | 67 | 319 | 2.0 | 4.0 | 0.00 | 0.00 | 0.00 | 77 | 1018.5 |
| 20260906035026 | 68 | 300 | 1.0 | 4.0 | 0.00 | 0.00 | 0.00 | 77 | 1018.4 |
| 20260906034526 | 68 | 281 | 2.0 | 3.0 | 0.00 | 0.00 | 0.00 | 76 | 1018.4 |
| 20260906034026 | 68 | 283 | 2.0 | 3.0 | 0.00 | 0.00 | 0.00 | 76 | 1018.4 |
| 20260906033526 | 67 | 286 | 3.0 | 3.0 | 0.00 | 0.00 | 0.00 | 77 | 1018.2 |
| 20260906033026 | 67 | 286 | 4.0 | 4.0 | 0.00 | 0.00 | 0.00 | 79 | 1018.3 |
| 20260906032526 | 67 | 285 | 4.0 | 6.0 | 0.00 | 0.00 | 0.00 | 80 | 1018.3 |
| 20260906032026 | 66 | 277 | 3.0 | 6.0 | 0.00 | 0.00 | 0.00 | 80 | 1018.3 |
| 20260906031526 | 66 | 279 | 3.0 | 6.0 | 0.00 | 0.00 | 0.00 | 80 | 1018.3 |
| 20260906031026 | 66 | 298 | 3.0 | 5.0 | 0.00 | 0.00 | 0.00 | 79 | 1018.4 |
| 20260906030526 | 66 | 294 | 3.0 | 4.0 | 0.00 | 0.00 | 0.00 | 79 | 1018.2 |
| 20260906030026 | 66 | 34 | 2.0 | 4.0 | 0.00 | 0.00 | 0.00 | 79 | 1018.3 |
| 20260906025526 | 66 | 44 | 2.0 | 3.0 | 0.00 | 0.00 | 0.00 | 79 | 1018.2 |
| 20260906025026 | 67 | 44 | 2.0 | 4.0 | 0.00 | 0.00 | 0.00 | 80 | 1018.3 |
| 20260906024526 | 67 | 200 | 0.0 | 2.0 | 0.00 | 0.00 | 0.00 | 80 | 1018.2 |
| 20260906024026 | 67 | 199 | 0.0 | 2.0 | 0.00 | 0.00 | 0.00 | 80 | 1018.2 |
| 20260906023526 | 67 | 199 | 0.0 | 0.0 | 0.00 | 0.00 | 0.00 | 79 | 1018.1 |
| 20260906023026 | 67 | 199 | 2.0 | 2.0 | 0.00 | 0.00 | 0.00 | 79 | 1018.2 |
| 20260906022526 | 68 | 199 | 2.0 | 7.0 | 0.00 | 0.00 | 0.00 | 78 | 1018.0 |
| 20260906022026 | 68 | 32 | 2.0 | 3.0 | 0.00 | 0.00 | 0.00 | 78 | 1018.1 |
| 20260906021527 | 68 | 32 | 2.0 | 2.0 | 0.00 | 0.00 | 0.00 | 80 | 1018.1 |
| 20260906021027 | 67 | 32 | 3.0 | 3.0 | 0.00 | 0.00 | 0.00 | 80 | 1018.1 |
| 20260906020527 | 67 | 32 | 3.0 | 7.0 | 0.00 | 0.00 | 0.00 | 79 | 1018.2 |
| 20260906020027 | 68 | 36 | 2.0 | 6.0 | 0.00 | 0.00 | 0.00 | 79 | 1018.2 |
| 20260906015526 | 68 | 141 | 2.0 | 2.0 | 0.00 | 0.00 | 0.00 | 79 | 1018.0 |
| 20260906015027 | 68 | 141 | 3.0 | 4.0 | 0.00 | 0.00 | 0.00 | 79 | 1018.1 |
| 20260906014527 | 68 | 123 | 2.0 | 4.0 | 0.00 | 0.00 | 0.00 | 79 | 1018.2 |
| 20260906014027 | 68 | 84 | 1.0 | 3.0 | 0.00 | 0.00 | 0.00 | 79 | 1018.2 |
| 20260906013527 | 67 | 77 | 0.0 | 0.0 | 0.00 | 0.00 | 0.00 | 79 | 1018.2 |
| 20260906013027 | 68 | 77 | 0.0 | 0.0 | 0.00 | 0.00 | 0.00 | 79 | 1018.3 |
| 20260906012527 | 68 | 77 | 0.0 | 0.0 | 0.00 | 0.00 | 0.00 | 79 | 1018.3 |
| 20260906012027 | 68 | 77 | 2.0 | 2.0 | 0.00 | 0.00 | 0.00 | 79 | 1018.3 |
| 20260906011527 | 68 | 77 | 3.0 | 3.0 | 0.00 | 0.00 | 0.00 | 78 | 1018.3 |
| 20260906011027 | 68 | 76 | 3.0 | 3.0 | 0.00 | 0.00 | 0.00 | 78 | 1018.3 |
| 20260906010527 | 68 | 76 | 3.0 | 3.0 | 0.00 | 0.00 | 0.00 | 79 | 1018.3 |
| 20260906010041 | 68 | 76 | 3.0 | 4.0 | 0.00 | 0.00 | 0.00 | 80 | 1018.2 |
| 20260906005527 | 68 | 65 | 2.0 | 4.0 | 0.00 | 0.00 | 0.00 | 80 | 1018.2 |
| 20260906005027 | 68 | 49 | 2.0 | 3.0 | 0.00 | 0.00 | 0.00 | 79 | 1018.2 |
| 20260906004527 | 69 | 48 | 1.0 | 3.0 | 0.00 | 0.00 | 0.00 | 78 | 1018.2 |
| 20260906004027 | 70 | 38 | 0.0 | 2.0 | 0.00 | 0.00 | 0.00 | 76 | 1018.1 |
| 20260906003527 | 70 | 38 | 1.0 | 1.0 | 0.00 | 0.00 | 0.00 | 76 | 1018.1 |
| 20260906003027 | 69 | 38 | 2.0 | 2.0 | 0.00 | 0.00 | 0.00 | 77 | 1018.0 |
| 20260906002527 | 69 | 38 | 3.0 | 3.0 | 0.00 | 0.00 | 0.00 | 80 | 1018.1 |
| 20260906002027 | 68 | 38 | 3.0 | 4.0 | 0.00 | 0.00 | 0.00 | 79 | 1018.1 |
| 20260906001527 | 68 | 32 | 2.0 | 4.0 | 0.00 | 0.00 | 0.00 | 78 | 1018.1 |
| 20260906001027 | 69 | 33 | 1.0 | 3.0 | 0.00 | 0.00 | 0.00 | 78 | 1018.1 |
| 20260906000527 | 70 | 146 | 1.0 | 1.0 | 0.00 | 0.00 | 0.00 | 78 | 1018.1 |
| 20260906000027 | 70 | 146 | 2.0 | 3.0 | 0.00 | 0.00 | 0.00 | 78 | 1018.1 |
| 20260905235527 | 70 | 146 | 3.0 | 3.0 | 0.00 | 0.00 | 0.00 | 78 | 1018.1 |
| 20260905235027 | 70 | 146 | 3.0 | 4.0 | 0.00 | 0.00 | 0.00 | 76 | 1018.1 |
| 20260905234527 | 71 | 144 | 3.0 | 6.0 | 0.00 | 0.00 | 0.00 | 74 | 1018.3 |
| 20260905234027 | 73 | 173 | 2.0 | 6.0 | 0.00 | 0.00 | 0.00 | 72 | 1018.1 |
| 20260905233527 | 75 | 339 | 2.0 | 2.0 | 0.00 | 0.00 | 0.00 | 73 | 1018.0 |
| 20260905233027 | 76 | 339 | 2.0 | 3.0 | 0.00 | 0.00 | 0.00 | 73 | 1018.0 |
| 20260905232527 | 75 | 339 | 3.0 | 3.0 | 0.00 | 0.00 | 0.00 | 70 | 1018.1 |
| 20260905232027 | 74 | 340 | 2.0 | 4.0 | 0.00 | 0.00 | 0.00 | 65 | 1018.1 |
| 20260905231527 | 74 | 326 | 2.0 | 3.0 | 0.00 | 0.00 | 0.00 | 67 | 1017.9 |
| 20260905231027 | 72 | 304 | 2.0 | 3.0 | 0.00 | 0.00 | 0.00 | 71 | 1017.8 |
| 20260905230527 | 73 | 302 | 2.0 | 3.0 | 0.00 | 0.00 | 0.00 | 75 | 1017.9 |
| 20260905230027 | 73 | 302 | 3.0 | 4.0 | 0.00 | 0.00 | 0.00 | 76 | 1017.8 |
| 20260905225527 | 73 | 278 | 3.0 | 6.0 | 0.00 | 0.00 | 0.00 | 78 | 1017.9 |
| 20260905225027 | 73 | 269 | 2.0 | 6.0 | 0.00 | 0.00 | 0.00 | 77 | 1017.9 |
| 20260905224527 | 73 | 305 | 2.0 | 3.0 | 0.00 | 0.00 | 0.00 | 77 | 1017.9 |
| 20260905224027 | 73 | 305 | 3.0 | 4.0 | 0.00 | 0.00 | 0.00 | 76 | 1017.9 |
| 20260905223527 | 73 | 306 | 2.0 | 4.0 | 0.00 | 0.00 | 0.00 | 75 | 1017.9 |
| 20260905223027 | 72 | 340 | 3.0 | 4.0 | 0.00 | 0.00 | 0.00 | 75 | 1017.9 |
| 20260905222527 | 72 | 321 | 2.0 | 4.0 | 0.00 | 0.00 | 0.00 | 76 | 1017.9 |
| 20260905222027 | 72 | 284 | 1.0 | 4.0 | 0.00 | 0.00 | 0.00 | 77 | 1017.8 |
| 20260905221527 | 72 | 276 | 1.0 | 1.0 | 0.00 | 0.00 | 0.00 | 76 | 1017.7 |
| 20260905221027 | 72 | 276 | 2.0 | 3.0 | 0.00 | 0.00 | 0.00 | 76 | 1017.6 |
| 20260905220527 | 73 | 277 | 3.0 | 4.0 | 0.00 | 0.00 | 0.00 | 75 | 1017.6 |
| 20260905220027 | 73 | 275 | 3.0 | 6.0 | 0.00 | 0.00 | 0.00 | 75 | 1017.6 |
| 20260905215527 | 73 | 295 | 3.0 | 4.0 | 0.00 | 0.00 | 0.00 | 75 | 1017.6 |
| 20260905215027 | 73 | 309 | 3.0 | 4.0 | 0.00 | 0.00 | 0.00 | 74 | 1017.6 |
| 20260905214527 | 74 | 335 | 3.0 | 4.0 | 0.00 | 0.00 | 0.00 | 73 | 1017.6 |
| 20260905214027 | 74 | 5 | 3.0 | 4.0 | 0.00 | 0.00 | 0.00 | 72 | 1017.5 |
| 20260905213527 | 75 | 5 | 3.0 | 4.0 | 0.00 | 0.00 | 0.00 | 73 | 1017.6 |
| 20260905213027 | 75 | 11 | 2.0 | 4.0 | 0.00 | 0.00 | 0.00 | 72 | 1017.5 |
| 20260905212527 | 75 | 51 | 1.0 | 3.0 | 0.00 | 0.00 | 0.00 | 72 | 1017.5 |
| 20260905212027 | 75 | 122 | 0.0 | 0.0 | 0.00 | 0.00 | 0.00 | 73 | 1017.4 |
| 20260905211527 | 75 | 123 | 0.0 | 1.0 | 0.00 | 0.00 | 0.00 | 72 | 1017.4 |
| 20260905211027 | 75 | 123 | 0.0 | 2.0 | 0.00 | 0.00 | 0.00 | 73 | 1017.6 |
| 20260905210527 | 74 | 123 | 0.0 | 0.0 | 0.00 | 0.00 | 0.00 | 73 | 1017.6 |
| 20260905210027 | 74 | 123 | 0.0 | 1.0 | 0.00 | 0.00 | 0.00 | 73 | 1017.6 |
| 20260905205527 | 74 | 123 | 1.0 | 2.0 | 0.00 | 0.00 | 0.00 | 73 | 1017.7 |
| 20260905205027 | 74 | 123 | 0.0 | 2.0 | 0.00 | 0.00 | 0.00 | 72 | 1017.7 |
| 20260905204527 | 75 | 123 | 1.0 | 3.0 | 0.00 | 0.00 | 0.00 | 72 | 1017.8 |
| 20260905204027 | 75 | 70 | 1.0 | 1.0 | 0.00 | 0.00 | 0.00 | 72 | 1017.7 |
| 20260905203527 | 75 | 70 | 2.0 | 3.0 | 0.00 | 0.00 | 0.00 | 72 | 1017.6 |
| 20260905203027 | 75 | 86 | 2.0 | 3.0 | 0.00 | 0.00 | 0.00 | 72 | 1017.5 |
| 20260905202527 | 75 | 88 | 2.0 | 3.0 | 0.00 | 0.00 | 0.00 | 71 | 1017.6 |
| 20260905202027 | 75 | 88 | 3.0 | 4.0 | 0.00 | 0.00 | 0.00 | 72 | 1017.5 |
| 20260905201527 | 75 | 88 | 1.0 | 4.0 | 0.00 | 0.00 | 0.00 | 72 | 1017.4 |
| 20260905201027 | 75 | 50 | 0.0 | 2.0 | 0.00 | 0.00 | 0.00 | 71 | 1017.5 |
| 20260905200527 | 75 | 49 | 0.0 | 0.0 | 0.00 | 0.00 | 0.00 | 70 | 1017.6 |
| 20260905200027 | 76 | 49 | 1.0 | 2.0 | 0.00 | 0.00 | 0.00 | 70 | 1017.7 |
| 20260905195527 | 76 | 49 | 2.0 | 2.0 | 0.00 | 0.00 | 0.00 | 71 | 1017.7 |
| 20260905195027 | 76 | 49 | 2.0 | 3.0 | 0.00 | 0.00 | 0.00 | 71 | 1017.7 |
| 20260905194527 | 76 | 49 | 2.0 | 3.0 | 0.00 | 0.00 | 0.00 | 70 | 1017.7 |
| 20260905194027 | 76 | 51 | 2.0 | 3.0 | 0.00 | 0.00 | 0.00 | 70 | 1017.7 |
| 20260905193527 | 76 | 50 | 2.0 | 3.0 | 0.00 | 0.00 | 0.00 | 70 | 1017.7 |
| 20260905193027 | 76 | 51 | 2.0 | 3.0 | 0.00 | 0.00 | 0.00 | 70 | 1017.7 |
| 20260905192527 | 76 | 51 | 2.0 | 2.0 | 0.00 | 0.00 | 0.00 | 70 | 1017.6 |
| 20260905192027 | 76 | 51 | 2.0 | 3.0 | 0.00 | 0.00 | 0.00 | 69 | 1017.5 |
| 20260905191527 | 76 | 51 | 3.0 | 3.0 | 0.00 | 0.00 | 0.00 | 69 | 1017.6 |
| 20260905191027 | 76 | 51 | 3.0 | 4.0 | 0.00 | 0.00 | 0.00 | 68 | 1017.5 |
| 20260905190527 | 76 | 65 | 2.0 | 3.0 | 0.00 | 0.00 | 0.00 | 68 | 1017.5 |
| 20260905190027 | 76 | 68 | 1.0 | 3.0 | 0.00 | 0.00 | 0.00 | 68 | 1017.5 |
| 20260905185527 | 76 | 69 | 0.0 | 2.0 | 0.00 | 0.00 | 0.00 | 67 | 1017.3 |
| 20260905185027 | 77 | 69 | 0.0 | 0.0 | 0.00 | 0.00 | 0.00 | 67 | 1017.2 |
| 20260905184527 | 77 | 69 | 0.0 | 0.0 | 0.00 | 0.00 | 0.00 | 66 | 1017.3 |
| 20260905184028 | 77 | 69 | 1.0 | 0.0 | 0.00 | 0.00 | 0.00 | 65 | 1017.2 |
| 20260905183527 | 77 | 69 | 1.0 | 3.0 | 0.00 | 0.00 | 0.00 | 65 | 1017.3 |
| 20260905183027 | 77 | 52 | 1.0 | 2.0 | 0.00 | 0.00 | 0.00 | 64 | 1017.1 |
| 20260905182527 | 77 | 51 | 2.0 | 3.0 | 0.00 | 0.00 | 0.00 | 63 | 1017.1 |
| 20260905182027 | 78 | 51 | 3.0 | 5.0 | 0.00 | 0.00 | 0.00 | 63 | 1017.3 |
| 20260905181527 | 78 | 61 | 3.0 | 5.0 | 0.00 | 0.00 | 0.00 | 62 | 1017.1 |
| 20260905181027 | 78 | 78 | 3.0 | 4.0 | 0.00 | 0.00 | 0.00 | 60 | 1017.0 |
| 20260905180527 | 79 | 82 | 3.0 | 4.0 | 0.00 | 0.00 | 0.00 | 59 | 1016.8 |
| 20260905180027 | 79 | 69 | 3.0 | 4.0 | 0.00 | 0.00 | 0.00 | 59 | 1016.7 |
| 20260905175527 | 79 | 34 | 3.0 | 4.0 | 0.00 | 0.00 | 0.00 | 59 | 1016.9 |
| 20260905175027 | 80 | 56 | 3.0 | 4.0 | 0.00 | 0.00 | 0.00 | 59 | 1016.7 |
| 20260905174527 | 80 | 65 | 3.0 | 4.0 | 0.00 | 0.00 | 0.00 | 57 | 1016.6 |
| 20260905174027 | 81 | 89 | 4.0 | 6.0 | 0.00 | 0.00 | 0.00 | 56 | 1016.3 |
| 20260905173527 | 82 | 90 | 4.0 | 7.0 | 0.00 | 0.00 | 0.00 | 54 | 1016.2 |
| 20260905173027 | 82 | 90 | 4.0 | 6.0 | 0.00 | 0.00 | 0.00 | 52 | 1016.2 |
| 20260905172527 | 82 | 90 | 3.0 | 6.0 | 0.00 | 0.00 | 0.00 | 53 | 1016.2 |
| 20260905172027 | 83 | 92 | 3.0 | 6.0 | 0.00 | 0.00 | 0.00 | 52 | 1016.2 |
| 20260905171527 | 84 | 40 | 1.0 | 3.0 | 0.00 | 0.00 | 0.00 | 48 | 1016.2 |
| 20260905171027 | 85 | 19 | 1.0 | 4.0 | 0.00 | 0.00 | 0.00 | 46 | 1016.4 |
| 20260905170527 | 86 | 19 | 2.0 | 5.0 | 0.00 | 0.00 | 0.00 | 47 | 1016.1 |
| 20260905170028 | 86 | 19 | 2.0 | 5.0 | 0.00 | 0.00 | 0.00 | 46 | 1016.2 |
| 20260905165528 | 86 | 338 | 1.0 | 3.0 | 0.00 | 0.00 | 0.00 | 45 | 1015.9 |
| 20260905165028 | 87 | 333 | 1.0 | 3.0 | 0.00 | 0.00 | 0.00 | 45 | 1015.9 |
| 20260905164528 | 87 | 321 | 1.0 | 3.0 | 0.00 | 0.00 | 0.00 | 45 | 1015.9 |
| 20260905164028 | 87 | 161 | 1.0 | 0.0 | 0.00 | 0.00 | 0.00 | 44 | 1015.8 |
| 20260905163528 | 88 | 161 | 1.0 | 2.0 | 0.00 | 0.00 | 0.00 | 46 | 1015.8 |
| 20260905163028 | 88 | 200 | 1.0 | 4.0 | 0.00 | 0.00 | 0.00 | 45 | 1015.7 |
| 20260905162528 | 88 | 200 | 1.0 | 4.0 | 0.00 | 0.00 | 0.00 | 44 | 1015.7 |
| 20260905162028 | 88 | 9 | 1.0 | 2.0 | 0.00 | 0.00 | 0.00 | 43 | 1015.7 |
| 20260905161528 | 88 | 9 | 1.0 | 3.0 | 0.00 | 0.00 | 0.00 | 41 | 1015.9 |
| 20260905161028 | 88 | 5 | 1.0 | 3.0 | 0.00 | 0.00 | 0.00 | 43 | 1016.0 |
| 20260905160528 | 88 | 5 | 2.0 | 3.0 | 0.00 | 0.00 | 0.00 | 44 | 1016.0 |
| 20260905160028 | 88 | 5 | 2.0 | 3.0 | 0.00 | 0.00 | 0.00 | 43 | 1015.9 |
| 20260905155528 | 88 | 5 | 2.0 | 3.0 | 0.00 | 0.00 | 0.00 | 43 | 1015.8 |
| 20260905155028 | 89 | 5 | 3.0 | 4.0 | 0.00 | 0.00 | 0.00 | 43 | 1016.0 |
| 20260905154528 | 89 | 25 | 2.0 | 5.0 | 0.00 | 0.00 | 0.00 | 40 | 1016.0 |
| 20260905154028 | 89 | 61 | 2.0 | 4.0 | 0.00 | 0.00 | 0.00 | 41 | 1015.9 |
| 20260905153528 | 90 | 281 | 1.0 | 4.0 | 0.00 | 0.00 | 0.00 | 40 | 1015.9 |
| 20260905153028 | 89 | 313 | 2.0 | 2.0 | 0.00 | 0.00 | 0.00 | 39 | 1015.9 |
| 20260905152528 | 89 | 243 | 4.0 | 8.0 | 0.00 | 0.00 | 0.00 | 41 | 1015.8 |
| 20260905152028 | 90 | 286 | 4.0 | 7.0 | 0.00 | 0.00 | 0.00 | 39 | 1015.9 |
| 20260905151528 | 90 | 254 | 5.0 | 8.0 | 0.00 | 0.00 | 0.00 | 39 | 1015.9 |
| 20260905151028 | 90 | 297 | 5.0 | 9.0 | 0.00 | 0.00 | 0.00 | 39 | 1015.8 |
| 20260905150528 | 90 | 265 | 6.0 | 9.0 | 0.00 | 0.00 | 0.00 | 37 | 1015.8 |
| 20260905150028 | 91 | 257 | 6.0 | 12.0 | 0.00 | 0.00 | 0.00 | 38 | 1015.8 |
| 20260905145528 | 90 | 274 | 7.0 | 11.0 | 0.00 | 0.00 | 0.00 | 38 | 1015.9 |
| 20260905145028 | 91 | 250 | 7.0 | 10.0 | 0.00 | 0.00 | 0.00 | 38 | 1015.8 |
| 20260905144528 | 91 | 225 | 7.0 | 12.0 | 0.00 | 0.00 | 0.00 | 37 | 1015.8 |
| 20260905144028 | 91 | 180 | 8.0 | 11.0 | 0.00 | 0.00 | 0.00 | 37 | 1015.9 |
| 20260905143528 | 91 | 227 | 8.0 | 15.0 | 0.00 | 0.00 | 0.00 | 37 | 1016.0 |
| 20260905143028 | 91 | 217 | 6.0 | 12.0 | 0.00 | 0.00 | 0.00 | 37 | 1016.0 |
| 20260905142528 | 91 | 275 | 5.0 | 10.0 | 0.00 | 0.00 | 0.00 | 36 | 1016.1 |
| 20260905142028 | 91 | 211 | 5.0 | 11.0 | 0.00 | 0.00 | 0.00 | 35 | 1016.2 |
| 20260905141528 | 91 | 19 | 6.0 | 9.0 | 0.00 | 0.00 | 0.00 | 37 | 1016.2 |
| 20260905141028 | 91 | 236 | 7.0 | 12.0 | 0.00 | 0.00 | 0.00 | 37 | 1016.3 |
| 20260905140528 | 91 | 297 | 8.0 | 12.0 | 0.00 | 0.00 | 0.00 | 38 | 1016.3 |
| 20260905140028 | 90 | 293 | 9.0 | 12.0 | 0.00 | 0.00 | 0.00 | 36 | 1016.3 |
| 20260905135528 | 90 | 300 | 8.0 | 11.0 | 0.00 | 0.00 | 0.00 | 36 | 1016.3 |
| 20260905135028 | 91 | 265 | 6.0 | 11.0 | 0.00 | 0.00 | 0.00 | 36 | 1016.3 |
| 20260905134528 | 91 | 293 | 6.0 | 10.0 | 0.00 | 0.00 | 0.00 | 36 | 1016.3 |
| 20260905134028 | 91 | 269 | 8.0 | 11.0 | 0.00 | 0.00 | 0.00 | 36 | 1016.5 |
| 20260905133528 | 91 | 310 | 9.0 | 15.0 | 0.00 | 0.00 | 0.00 | 35 | 1016.4 |
| 20260905133028 | 91 | 263 | 9.0 | 13.0 | 0.00 | 0.00 | 0.00 | 35 | 1016.4 |
| 20260905132528 | 91 | 245 | 9.0 | 12.0 | 0.00 | 0.00 | 0.00 | 35 | 1016.5 |
| 20260905132028 | 90 | 273 | 9.0 | 13.0 | 0.00 | 0.00 | 0.00 | 36 | 1016.6 |
| 20260905131528 | 90 | 255 | 10.0 | 14.0 | 0.00 | 0.00 | 0.00 | 37 | 1016.6 |
| 20260905131028 | 90 | 265 | 11.0 | 15.0 | 0.00 | 0.00 | 0.00 | 37 | 1016.6 |
| 20260905125913 | 90 | 250 | 10.0 | 15.0 | 0.00 | 0.00 | 0.00 | 36 | 1016.8 |
| 20260905123749 | 91 | 273 | 11.0 | 15.0 | 0.00 | 0.00 | 0.00 | 38 | 1016.9 |
| 20260905123249 | 91 | 259 | 10.0 | 15.0 | 0.00 | 0.00 | 0.00 | 36 | 1016.9 |
| 20260905122749 | 91 | 242 | 8.0 | 13.0 | 0.00 | 0.00 | 0.00 | 37 | 1016.9 |
| 20260905122249 | 91 | 261 | 9.0 | 13.0 | 0.00 | 0.00 | 0.00 | 37 | 1017.0 |
| 20260905121749 | 91 | 236 | 10.0 | 15.0 | 0.00 | 0.00 | 0.00 | 35 | 1017.0 |
| 20260905121249 | 91 | 257 | 10.0 | 14.0 | 0.00 | 0.00 | 0.00 | 35 | 1017.0 |
| 20260905120749 | 91 | 241 | 10.0 | 13.0 | 0.00 | 0.00 | 0.00 | 37 | 1017.1 |
| 20260905120249 | 91 | 236 | 10.0 | 13.0 | 0.00 | 0.00 | 0.00 | 37 | 1017.2 |
| 20260905115749 | 91 | 235 | 9.0 | 14.0 | 0.00 | 0.00 | 0.00 | 37 | 1017.2 |
| 20260905115249 | 91 | 251 | 9.0 | 14.0 | 0.00 | 0.00 | 0.00 | 36 | 1017.3 |
| 20260905114749 | 91 | 242 | 9.0 | 13.0 | 0.00 | 0.00 | 0.00 | 35 | 1017.3 |
| 20260905114249 | 92 | 261 | 9.0 | 12.0 | 0.00 | 0.00 | 0.00 | 36 | 1017.2 |
| 20260905113749 | 92 | 250 | 7.0 | 14.0 | 0.00 | 0.00 | 0.00 | 36 | 1017.3 |
| 20260905113249 | 91 | 260 | 7.0 | 10.0 | 0.00 | 0.00 | 0.00 | 37 | 1017.2 |
| 20260905112749 | 91 | 271 | 8.0 | 11.0 | 0.00 | 0.00 | 0.00 | 36 | 1017.3 |
| 20260905112249 | 91 | 309 | 8.0 | 14.0 | 0.00 | 0.00 | 0.00 | 36 | 1017.3 |
| 20260905111749 | 91 | 302 | 7.0 | 12.0 | 0.00 | 0.00 | 0.00 | 35 | 1017.4 |
| 20260905111249 | 91 | 252 | 5.0 | 11.0 | 0.00 | 0.00 | 0.00 | 35 | 1017.3 |
| 20260905110749 | 91 | 244 | 6.0 | 9.0 | 0.00 | 0.00 | 0.00 | 33 | 1017.4 |
| 20260905110249 | 91 | 290 | 6.0 | 11.0 | 0.00 | 0.00 | 0.00 | 35 | 1017.3 |
| 20260905105749 | 91 | 285 | 6.0 | 10.0 | 0.00 | 0.00 | 0.00 | 35 | 1017.4 |
| 20260905105249 | 91 | 290 | 6.0 | 11.0 | 0.00 | 0.00 | 0.00 | 35 | 1017.3 |
| 20260905104749 | 91 | 288 | 5.0 | 10.0 | 0.00 | 0.00 | 0.00 | 38 | 1017.4 |
| 20260905104249 | 91 | 355 | 4.0 | 8.0 | 0.00 | 0.00 | 0.00 | 36 | 1017.4 |
| 20260905103749 | 91 | 270 | 3.0 | 8.0 | 0.00 | 0.00 | 0.00 | 36 | 1017.3 |